Regional Weather Roundup
Issued by NWS

Home | Current Version | Previous Version | Text Only | Print | Product List | Glossary Off
Versions: 1 2 3 4 5 6 7 8 9 10 11 12 13 14 15 16 17 18 19 20 21 22 23 24 25 26 27 28 29 30 31 32 33 34 35 36 37 38 39 40 41 42 43 44 45 46 47 48 49 50

000
ASUS43 KOAX 230102
RWRNE

WEATHER ROUNDUP FOR NEBRASKA
NATIONAL WEATHER SERVICE OMAHA NE
700 PM CST SUN JAN 22 2017

NOTES: SATELLITE DATA IS BEING USED TO AUGMENT CLOUD COVER ABOVE
       12000 FEET.
       "FAIR" INDICATES FEW OR NO CLOUDS BELOW 12,000 FEET WITH NO
       SIGNIFICANT WEATHER AND/OR OBSTRUCTIONS TO VISIBILITY.

  * THESE STATIONS DO NOT REPORT WEATHER SUCH AS RAIN...SNOW OR FOG.

NEZ001>004-019>022-054>056-230200-
NEBRASKA PANHANDLE

CITY           SKY/WX    TMP DP  RH WIND       PRES   REMARKS
SCOTTSBLUFF    CLEAR     33  19  56 W6        29.88R WCI  28
ALLIANCE       CLEAR     26  19  74 W8        29.86R WCI  18
CHADRON        CLEAR     28  24  85 SW6       29.86R WCI  22
SIDNEY         CLEAR     24  16  71 W8        29.90R WCI  15
$$

NEZ057>060-069>072-079>082-230200-
SOUTHWEST NEBRASKA

CITY           SKY/WX    TMP DP  RH WIND       PRES   REMARKS
NORTH PLATTE   CLEAR     34  25  69 W3        29.88R
IMPERIAL       CLEAR     36  24  62 NW5       29.90R WCI  32
LEXINGTON      CLEAR     36  29  77 W7        29.88S WCI  30
MCCOOK         CLEAR     36  27  69 W8        29.89S WCI  30
OGALLALA       CLEAR     33  27  76 W5        29.89R WCI  29
$$

NEZ005>010-023>029-035>040-094-230200-
NORTH CENTRAL NEBRASKA

CITY           SKY/WX    TMP DP  RH WIND       PRES   REMARKS
VALENTINE      CLEAR     26  21  81 W5        29.87S WCI  20
AINSWORTH      CLEAR     31  25  78 W5        29.87F WCI  26
BROKEN BOW     CLEAR     36  27  69 N7        29.87R WCI  30
O`NEILL        CLEAR     32  28  84 NW8       29.88S WCI  25
ORD            CLEAR     33  25  72 NW8       29.87R WCI  26
THEDFORD       CLEAR     36  25  64 CALM      29.88S
$$

NEZ041-046>049-061>064-073>077-083>087-230200-
SOUTH CENTRAL NEBRASKA

CITY           SKY/WX    TMP DP  RH WIND       PRES   REMARKS
GRAND ISLAND   CLEAR     36  30  79 NW5       29.88R WCI  32
AURORA         CLEAR     36  31  81 NW6       29.87R WCI  32
HASTINGS       CLEAR     35  30  82 W3        29.88R
HEBRON         CLEAR     32  29  88 CALM      29.88S
HOLDREGE       CLEAR     39  29  68 W3        29.88R
KEARNEY *      CLEAR     37  28  70 NW3       29.88R
YORK           CLEAR     36  32  87 CALM      29.87S
$$

NEZ011>018-030>034-042>045-230200-
NORTHEAST NEBRASKA

CITY           SKY/WX    TMP DP  RH WIND       PRES   REMARKS
NORFOLK        CLEAR     33  26  75 NW6       29.86R WCI  28
ALBION         CLEAR     32  22  68 NW3       29.87R
BLAIR          CLEAR     34  32  91 NW8       29.85R WCI  28
FREMONT        CLEAR     32  32 100 W3        29.87R
TEKAMAH        CLEAR     32  30  92 N8        29.88R WCI  25
WAYNE          CLEAR     32  30  92 NW5       29.86R WCI  27
$$

NEZ050>053-065>068-078-088>093-230200-
SOUTHEAST NEBRASKA

CITY           SKY/WX    TMP DP  RH WIND       PRES   REMARKS
LINCOLN        CLEAR     32  29  88 W3        29.89R
OMAHA EPPLEY   PTCLDY    30  26  85 NW7       29.87R WCI  23
BEATRICE       CLEAR     31  30  96 NW3       29.88S
FALLS CITY     CLOUDY    36  33  89 NW9       29.86R WCI  29
NEBRASKA CITY  CLEAR     34  32  94 NW10      29.86R WCI  26
PLATTSMOUTH    CLEAR     34  30  88 W10       29.86R WCI  26
$$

NEZ044-045-051>053-067-230200-
OMAHA AREA

CITY           SKY/WX    TMP DP  RH WIND       PRES   REMARKS
OMAHA EPPLEY   PTCLDY    30  26  85 NW7       29.87R WCI  23
BLAIR          CLEAR     34  32  91 NW8       29.85R WCI  28
FREMONT        CLEAR     32  32 100 W3        29.87R
MILLARD        CLEAR     37  34  89 NW3       29.87R
OFFUTT AFB     CLEAR     32  32 100 NW5       29.86R WCI  28
PLATTSMOUTH    CLEAR     34  30  88 W10       29.86R WCI  26
WAHOO          FAIR      32  31  95 CALM      29.87S
$$




USA.gov is the U.S. government's official web portal to all federal, state and local government web resources and services.